Find Starlink 37329

NORAD ID: 69155 Int'l Des: 2026-111 Owner: SPXS Country: US Constellation: starlink operational
LEOCIRCULAR

現在のビュー

3D地球を読み込み中...

About Starlink 37329

Starlink 37329 (NORAD 69155) is a starlink constellation satellite (v2 mini) launched May 21, 2026 by SPXS of US. It operates in LEO, CIRCULAR orbit with a mass of 575.00 kg.

次回通過

Passes for default location (London). Set your location on the main map for personalized predictions.

高度履歴

Loading altitude history...

軌道要素

1 69155U 26111H 26234.89091950 .00013644 00000-0 41420-3 0 9997
2 69155 53.1573 199.6674 0001645 78.1462 281.9725 15.34401839 14500
Epoch: Aug 22, 2026 • Age: 27 hours

現在のステータス

高度 467.3 km
遠地点 / 近地点 N/A
速度 7.64 km/s
衛星直下点 49.74°N, 80.28°W
打ち上げ日 May 21, 2026
運用期間 0.2 years
タイプ internet

技術仕様

分類 Payload
質量 575.00 kg
乾燥質量 530.00 kg
総質量 575.00 kg
長さ 0.30 m
直径 4.10 m
スパン 29.00 m
形状 Box + pan
製造者 SPXS
バスタイプ Starlink V2MO
フェーズステータス In Orbit
所有者/国 SPXS/US

Most Searched